[[{"header":{"parameterUnit":"m.s-1","parameterCategory":1,"la1":30.2991,"la2":30.254,"lo1":-89.0895,"lo2":-89.0444,"dy":0.0017,"dx":0.0017,"nx":28,"ny":28,"refTime":"2024-08-10T21:00:00:Z","depth":0,"parameterNumber":2,"parameterNumberName":"U-component_of_WINDS"},"data":[0,0,0,0,0,0,0,0,0,0,0,0,0,0,0,0,0,0,0,0,0,0,0,0,0,0,0,0,0,0,0,0,0,0,0,0,0,0,0,0,0,0,0,0,0,0,0,0,0,0,0,0,0,0,0,0,0,0,0.1945,0.1945,0,0.2026,0.2027,0.2028,0.2033,0.2032,0.2031,0.203,0.2114,0.2117,0.212,0,0,0,0,0,0,0,0,0,0,0,0,0,0.1795,0.1798,0.1945,0.1946,0.1947,0.2026,0.2027,0.2028,0.2033,0.2032,0.203,0.2029,0.2113,0.2117,0.2121,0,0,0,0,0,0,0,0,0,0,0,0,0,0.1867,0.1799,0.1944,0.1958,0.196,0.2026,0.2027,0.2029,0.2033,0.2032,0.203,0.2029,0.2112,0.2116,0.2121,0.2179,0,0,0.2135,0.2137,0,0,0,0,0,0,0,0,0.1863,0.1872,0.1955,0.1957,0.196,0.2018,0.2006,0.2079,0.2033,0.2005,0.203,0.2028,0.2083,0.209,0.2109,0.2183,0.2186,0.2136,0.2139,0.2141,0.2142,0,0,0,0,0,0,0,0.1858,0.1869,0.1977,0.1956,0.1959,0.1961,0.197,0.2019,0.2051,0.2008,0.2008,0.2018,0.2084,0.2104,0.2111,0.2187,0.2136,0.214,0.2143,0.2145,0.2317,0.2319,0,0,0,0,0,0,0.185,0.1864,0.1974,0.1979,0.1907,0.1965,0.1975,0.2001,0.2051,0.2057,0.2019,0.2018,0.2097,0.2105,0.2114,0.2188,0.2141,0.2145,0.2148,0.2316,0.2318,0.232,0,0,0,0,0,0,0.1846,0.1859,0.1971,0.1922,0.1937,0.1969,0.1998,0.2003,0.2023,0.2059,0.2065,0.2033,0.2096,0.2107,0.2163,0.2191,0.2147,0.2151,0.2313,0.2316,0.2319,0.2335,0,0,0,0,0,0,0.1842,0.1858,0.188,0.1923,0.1939,0.2019,0.2,0.2006,0.2031,0.203,0.2074,0.208,0.2096,0.2156,0.2168,0.2197,0.2155,0.2311,0.2315,0.2318,0.2332,0.2338,0.2342,0,0,0,0,0,0.1837,0.188,0.1881,0.1894,0.1966,0.202,0.203,0.2046,0.2033,0.2056,0.208,0.2079,0.2185,0.2162,0.2175,0.2206,0.231,0.2314,0.2318,0.233,0.2336,0.2342,0,0,0,0,0,0,0.1839,0.1886,0.1887,0.1945,0.1979,0.2021,0.205,0.2052,0.209,0.2088,0.2107,0.2118,0.2174,0.2195,0.2168,0.2266,0.2246,0.2253,0.2251,0.2258,0.2263,0.2258,0.2159,0,0,0,0,0,0.1846,0.1885,0.1924,0.1972,0.1989,0.2016,0.204,0.205,0.2086,0.21,0.2128,0.2163,0.2205,0.2232,0.2272,0.2334,0.2346,0.2362,0.2367,0.2371,0.2378,0.2417,0.2425,0.2333,0.2333,0.2333,0,0,0.1861,0.1892,0.1915,0.1973,0.2,0.2042,0.2028,0.2072,0.2104,0.2107,0.2163,0.2185,0.2225,0.2286,0.2314,0.2305,0.2406,0.2376,0.2379,0.2384,0.2422,0.243,0.2438,0.2335,0.2335,0.2334,0,0,0.1912,0.1937,0.1982,0.201,0.2051,0.207,0.2081,0.2123,0.2138,0.2194,0.2199,0.2237,0.2307,0.2337,0.2362,0.2426,0.2429,0.2439,0.2467,0.2505,0.2512,0.2519,0.2546,0.2555,0.2444,0.2445,0.2445,0,0.1926,0.1988,0.2004,0.2049,0.2076,0.2081,0.2128,0.2154,0.2207,0.2226,0.2215,0.2306,0.2333,0.2404,0.242,0.2438,0.2453,0.2435,0.251,0.2517,0.2523,0.2549,0.2559,0.2446,0.2446,0.2446,0.2445,0,0.2005,0.2049,0.208,0.2132,0.2162,0.2207,0.2232,0.2261,0.2269,0.2289,0.2348,0.2381,0.243,0.2447,0.2454,0.2519,0.2513,0.2505,0.2486,0.2533,0.2558,0.2568,0.2448,0.2447,0.2447,0.2446,0,0,0.2059,0.2121,0.2133,0.2158,0.2206,0.224,0.2287,0.2335,0.2361,0.2397,0.244,0.25,0.2495,0.2523,0.2534,0.2566,0.2621,0.2555,0.2557,0.257,0.2699,0.2707,0.2718,0.2621,0.2623,0.2625,0.2697,0,0.2118,0.2201,0.2218,0.2292,0.2334,0.2341,0.2382,0.2417,0.2437,0.2477,0.2499,0.2544,0.2531,0.2549,0.2581,0.2607,0.2647,0.2601,0.2663,0.2665,0.2657,0.273,0.2738,0.2805,0.2706,0.2708,0.2709,0,0.2197,0.2237,0.2315,0.236,0.2378,0.2415,0.2463,0.25,0.254,0.2553,0.2586,0.2594,0.2645,0.2622,0.2695,0.2663,0.2689,0.2706,0.2709,0.2718,0.2692,0.2745,0.2826,0.2838,0.2724,0.2723,0.2721,0,0.2234,0.2306,0.2364,0.2384,0.2437,0.2464,0.2488,0.2526,0.2556,0.2597,0.2617,0.2663,0.269,0.2726,0.2748,0.2728,0.2821,0.2798,0.2836,0.2836,0.2857,0.2856,0.2947,0.2868,0.2868,0.2867,0.2867,0,0.2299,0.2347,0.2381,0.2417,0.2472,0.2492,0.2546,0.257,0.2605,0.2646,0.2653,0.2693,0.2717,0.276,0.2777,0.2838,0.2848,0.2862,0.2867,0.2864,0.2863,0.2884,0.2881,0.287,0.287,0.2869,0.2869,0,0.235,0.2374,0.2438,0.2484,0.2496,0.2536,0.2576,0.2611,0.2632,0.2685,0.2699,0.2732,0.2784,0.2808,0.2871,0.2883,0.2953,0.2952,0.294,0.2942,0.298,0.2978,0.3091,0.3109,0.3014,0.3014,0.3015,0,0.2392,0.243,0.248,0.2509,0.2534,0.2579,0.2609,0.263,0.2662,0.2713,0.2743,0.2795,0.2838,0.2921,0.2951,0.3001,0.3004,0.304,0.3012,0.3009,0.301,0.3009,0.3015,0.3047,0.3047,0.3048,0.3049,0,0.2465,0.2476,0.252,0.2569,0.2605,0.2644,0.2682,0.2706,0.2733,0.2769,0.2822,0.2856,0.2922,0.2975,0.3027,0.3052,0.3057,0.3057,0.307,0.3069,0.3062,0.307,0.2958,0.3055,0.3055,0.3054,0.3054,0.3054,0.2516,0.2552,0.2594,0.2643,0.2674,0.2711,0.2748,0.2775,0.2819,0.2875,0.2885,0.2943,0.2985,0.3056,0.3083,0.313,0.3122,0.3138,0.3143,0.3148,0.3153,0.3051,0.3139,0.3139,0.3139,0.3139,0.3138,0,0.2594,0.2621,0.2666,0.2721,0.2761,0.276,0.2804,0.2838,0.2888,0.2927,0.297,0.3033,0.3085,0.3121,0.3174,0.3205,0.3209,0.3219,0.3218,0.3225,0.3154,0.3141,0.3215,0.3215,0.3215,0.3215,0.3215,0.3215,0.2639,0.27,0.2717,0.2795,0.2822,0.2879,0.2905,0.294,0.2972,0.3042,0.3086,0.3108,0.3147,0.3204,0.3252,0.3262,0.3283,0.3294,0.3303,0.3237,0.323,0.3222,0.321,0.3297,0.3297,0.3371,0.3372,0.3372]},{"header":{"parameterUnit":"m.s-1","parameterCategory":1,"la1":30.2991,"la2":30.254,"lo1":-89.0895,"lo2":-89.0444,"dy":0.0017,"dx":0.0017,"nx":28,"ny":28,"refTime":"2024-08-10T21:00:00:Z","depth":0,"parameterNumber":3,"parameterNumberName":"V-component_of_WINDS"},"data":[0,0,0,0,0,0,0,0,0,0,0,0,0,0,0,0,0,0,0,0,0,0,0,0,0,0,0,0,0,0,0,0,0,0,0,0,0,0,0,0,0,0,0,0,0,0,0,0,0,0,0,0,0,0,0,0,0,0,-1.845,-1.845,0,-1.8466,-1.8466,-1.8466,-1.8493,-1.8494,-1.8494,-1.8495,-1.8509,-1.8509,-1.8509,0,0,0,0,0,0,0,0,0,0,0,0,0,-1.8441,-1.8441,-1.845,-1.845,-1.845,-1.8466,-1.8466,-1.8466,-1.8493,-1.8494,-1.8494,-1.8495,-1.8509,-1.8509,-1.8509,0,0,0,0,0,0,0,0,0,0,0,0,0,-1.845,-1.8441,-1.845,-1.8466,-1.8467,-1.8466,-1.8466,-1.8466,-1.8493,-1.8494,-1.8494,-1.8495,-1.8509,-1.8509,-1.8509,-1.8493,0,0,-1.8509,-1.8509,0,0,0,0,0,0,0,0,-1.8449,-1.845,-1.8463,-1.8465,-1.8466,-1.8478,-1.8468,-1.8475,-1.8493,-1.8483,-1.8495,-1.8496,-1.8498,-1.8499,-1.85,-1.8494,-1.8494,-1.8509,-1.8509,-1.8509,-1.8509,0,0,0,0,0,0,0,-1.8449,-1.8449,-1.8456,-1.8463,-1.8465,-1.8471,-1.8473,-1.847,-1.8486,-1.8484,-1.8486,-1.8488,-1.8499,-1.85,-1.8501,-1.8495,-1.8509,-1.8509,-1.8509,-1.8509,-1.8474,-1.8473,0,0,0,0,0,0,-1.8446,-1.8449,-1.8456,-1.8457,-1.8459,-1.8471,-1.8473,-1.8474,-1.8486,-1.8489,-1.8487,-1.8489,-1.85,-1.8501,-1.8502,-1.8482,-1.8509,-1.8508,-1.8508,-1.8475,-1.8474,-1.8473,0,0,0,0,0,0,-1.8446,-1.8446,-1.8455,-1.8453,-1.8455,-1.847,-1.8471,-1.8474,-1.8475,-1.8489,-1.8491,-1.8485,-1.8501,-1.8502,-1.8495,-1.8483,-1.8508,-1.8508,-1.8476,-1.8475,-1.8474,-1.8444,0,0,0,0,0,0,-1.8445,-1.8446,-1.844,-1.8453,-1.8455,-1.8448,-1.847,-1.8473,-1.8475,-1.8477,-1.8488,-1.849,-1.8502,-1.8495,-1.8495,-1.8483,-1.8508,-1.8477,-1.8475,-1.8474,-1.8446,-1.8442,-1.8438,0,0,0,0,0,-1.8445,-1.8431,-1.844,-1.8441,-1.8448,-1.8448,-1.8449,-1.8463,-1.8474,-1.8468,-1.8476,-1.849,-1.8485,-1.8494,-1.8494,-1.8482,-1.8478,-1.8476,-1.8474,-1.8447,-1.8442,-1.8438,0,0,0,0,0,0,-1.8416,-1.8433,-1.8443,-1.8433,-1.8439,-1.8452,-1.8445,-1.8457,-1.8459,-1.8461,-1.8478,-1.848,-1.8471,-1.8476,-1.8486,-1.8467,-1.8483,-1.8481,-1.8463,-1.8458,-1.8455,-1.8452,-1.8508,0,0,0,0,0,-1.8409,-1.8408,-1.8423,-1.8413,-1.8415,-1.843,-1.843,-1.844,-1.8446,-1.8449,-1.8457,-1.8462,-1.8461,-1.8461,-1.8461,-1.8448,-1.8449,-1.844,-1.8436,-1.8432,-1.843,-1.8421,-1.8416,-1.8467,-1.8467,-1.8467,0,0,-1.8394,-1.8403,-1.8401,-1.8407,-1.8413,-1.841,-1.8431,-1.8428,-1.8425,-1.8448,-1.8441,-1.8448,-1.8455,-1.8444,-1.8439,-1.8448,-1.8416,-1.843,-1.8427,-1.8426,-1.8418,-1.8414,-1.8409,-1.8466,-1.8466,-1.8466,0,0,-1.8364,-1.8372,-1.8363,-1.8369,-1.8377,-1.8387,-1.8385,-1.8396,-1.8401,-1.8395,-1.8412,-1.8409,-1.8409,-1.8412,-1.8414,-1.8385,-1.8397,-1.8385,-1.8364,-1.8355,-1.8351,-1.8348,-1.8335,-1.8331,-1.8383,-1.8383,-1.8383,0,-1.8344,-1.8341,-1.8357,-1.8353,-1.8354,-1.8375,-1.8366,-1.837,-1.8378,-1.8378,-1.8388,-1.8387,-1.8393,-1.8382,-1.8375,-1.8377,-1.8374,-1.8383,-1.8351,-1.8347,-1.8344,-1.8332,-1.8328,-1.8381,-1.8381,-1.8382,-1.8382,0,-1.8314,-1.8312,-1.8304,-1.8311,-1.8312,-1.8305,-1.832,-1.8319,-1.833,-1.8338,-1.8331,-1.8339,-1.8341,-1.834,-1.835,-1.833,-1.8335,-1.8348,-1.8364,-1.8337,-1.8326,-1.8322,-1.8379,-1.8379,-1.838,-1.838,0,0,-1.8265,-1.8282,-1.8278,-1.8281,-1.8292,-1.829,-1.8284,-1.8286,-1.8284,-1.8289,-1.8283,-1.8282,-1.8293,-1.8295,-1.8306,-1.8299,-1.8273,-1.8312,-1.8313,-1.8302,-1.8249,-1.8237,-1.8232,-1.8282,-1.8281,-1.8281,-1.8248,0,-1.8235,-1.8226,-1.8241,-1.8227,-1.8224,-1.8245,-1.8239,-1.8244,-1.8252,-1.8251,-1.826,-1.8257,-1.8274,-1.8275,-1.8269,-1.8277,-1.8262,-1.8281,-1.8274,-1.8274,-1.8269,-1.8227,-1.8215,-1.8183,-1.8244,-1.8243,-1.8243,0,-1.8199,-1.8202,-1.8188,-1.8199,-1.8198,-1.8193,-1.8195,-1.8194,-1.82,-1.8207,-1.8209,-1.8222,-1.8216,-1.8234,-1.8224,-1.8236,-1.8235,-1.8239,-1.8238,-1.8236,-1.8255,-1.8221,-1.8174,-1.8167,-1.8237,-1.8237,-1.8238,0,-1.8161,-1.8162,-1.8154,-1.8156,-1.8169,-1.8164,-1.8169,-1.8177,-1.8177,-1.8179,-1.8179,-1.8181,-1.8181,-1.8181,-1.8194,-1.8207,-1.8182,-1.8202,-1.8185,-1.8185,-1.8177,-1.8177,-1.8126,-1.8181,-1.8181,-1.8181,-1.8181,0,-1.8125,-1.8115,-1.8137,-1.8131,-1.812,-1.8138,-1.8126,-1.8134,-1.814,-1.8135,-1.8154,-1.8149,-1.8168,-1.8165,-1.8175,-1.8164,-1.8165,-1.8168,-1.8171,-1.8165,-1.8164,-1.8162,-1.8164,-1.818,-1.818,-1.818,-1.8181,0,-1.808,-1.8095,-1.8086,-1.8099,-1.8102,-1.8093,-1.8104,-1.8099,-1.8109,-1.8103,-1.8102,-1.8117,-1.8114,-1.8128,-1.8128,-1.8135,-1.8117,-1.8125,-1.8115,-1.8116,-1.8098,-1.8098,-1.8042,-1.8034,-1.8097,-1.8096,-1.8096,0,-1.8055,-1.8047,-1.806,-1.8058,-1.8062,-1.806,-1.806,-1.8077,-1.8076,-1.8083,-1.8076,-1.8075,-1.8075,-1.8069,-1.8079,-1.8079,-1.8085,-1.8065,-1.8085,-1.8079,-1.8081,-1.808,-1.8078,-1.806,-1.8059,-1.8059,-1.8058,0,-1.8007,-1.8014,-1.8014,-1.8015,-1.8015,-1.8017,-1.8021,-1.8018,-1.8037,-1.8035,-1.8032,-1.8032,-1.8032,-1.803,-1.8031,-1.8036,-1.8049,-1.8053,-1.8048,-1.804,-1.8034,-1.8034,-1.8101,-1.8053,-1.8053,-1.8054,-1.8054,-1.8054,-1.7969,-1.7962,-1.797,-1.7968,-1.7973,-1.7976,-1.7971,-1.798,-1.7978,-1.7979,-1.799,-1.7985,-1.7991,-1.7995,-1.7998,-1.7994,-1.8003,-1.7997,-1.7995,-1.7993,-1.7988,-1.8037,-1.7995,-1.7995,-1.7995,-1.7995,-1.7995,0,-1.7919,-1.7925,-1.7924,-1.7928,-1.7926,-1.7941,-1.7946,-1.7943,-1.7938,-1.7943,-1.7943,-1.7939,-1.7937,-1.7947,-1.7947,-1.7941,-1.7947,-1.794,-1.7939,-1.7939,-1.7982,-1.7984,-1.7935,-1.7935,-1.7935,-1.7935,-1.7935,-1.7935,-1.7893,-1.7882,-1.7891,-1.7882,-1.7889,-1.7884,-1.7885,-1.7887,-1.7891,-1.7886,-1.7884,-1.7892,-1.7898,-1.7898,-1.7896,-1.7899,-1.7897,-1.7887,-1.7892,-1.7931,-1.7936,-1.7942,-1.7944,-1.7887,-1.7887,-1.7849,-1.7849,-1.7848]}]]